Find Starlink 32955

NORAD ID: 63117 Int'l Des: 2025-039 Owner: SPXS Country: US Constellation: starlink decayed
LEOCIRCULAR

Re-entered — 15. Sept. 2026

3D-Globus wird geladen...

About Starlink 32955

Starlink 32955 (NORAD 63117) is a starlink constellation satellite (v2 mini) launched Feb 27, 2025 by SPXS of US. It re-entered the atmosphere on Sep 15, 2026. with a mass of 730.00 kg.

Höhenverlauf

Loading altitude history...

Zweizeiliger Elementsatz

1 63117U 25039P 26258.57542115 .15228672 90194-5 36526-2 0 9995
2 63117 42.9685 314.6341 0014693 98.3898 261.8656 16.28166397 87844
Epoch: 15. Sept. 2026 • Age: 152 hours

Aktueller Status

Position data unavailable
Startdatum 27. Feb. 2025
Alter 1.5 years
Verglühungsdatum 15. Sept. 2026
Typ internet

Technische Details

Klassifizierung Payload
Masse 730.00 kg
Trockenmasse 700.00 kg
Länge 0.30 m
Spannweite 29.00 m
Form ? Box + pan
Hersteller SPXS
Bus-Typ Starlink V2M
Phasenstatus In Orbit
Besitzer/Staat SPXS/US

Most Searched